[[{"header":{"parameterUnit":"m.s-1","parameterCategory":1,"la1":30.2991,"la2":30.254,"lo1":-89.0895,"lo2":-89.0444,"dy":0.0017,"dx":0.0017,"nx":28,"ny":28,"refTime":"2025-12-14T03:00:00:Z","depth":0,"parameterNumber":2,"parameterNumberName":"U-component_of_WINDS"},"data":[0,0,0,0,0,0,0,0,0,0,0,0,0,0,0,0,0,0,0,0,0,0,0,0,0,0,0,0,0,0,0,0,0,0,0,0,0,0,0,0,0,0,0,0,0,0,0,0,0,0,0,0,0,0,0,0,0,0,-1.2425,-1.2425,0,-1.2481,-1.2482,-1.2482,-1.247,-1.2469,-1.2468,-1.2467,-1.2524,-1.2526,-1.2529,0,0,0,0,0,0,0,0,0,0,0,0,0,-1.2304,-1.2307,-1.2425,-1.2425,-1.2426,-1.2481,-1.2482,-1.2483,-1.247,-1.2469,-1.2467,-1.2466,-1.2523,-1.2526,-1.2529,0,0,0,0,0,0,0,0,0,0,0,0,0,-1.2358,-1.2307,-1.2425,-1.2426,-1.2427,-1.2481,-1.2482,-1.2483,-1.247,-1.2469,-1.2467,-1.2466,-1.2522,-1.2526,-1.2529,-1.2584,0,0,-1.2541,-1.2543,0,0,0,0,0,0,0,0,-1.2355,-1.2363,-1.2425,-1.2426,-1.2427,-1.2467,-1.246,-1.2517,-1.2471,-1.2454,-1.2467,-1.2465,-1.2506,-1.2511,-1.2525,-1.2587,-1.259,-1.2541,-1.2544,-1.2545,-1.2546,0,0,0,0,0,0,0,-1.2352,-1.236,-1.2447,-1.2426,-1.2428,-1.2424,-1.243,-1.2471,-1.2488,-1.2455,-1.2454,-1.2461,-1.2506,-1.2522,-1.2526,-1.259,-1.2541,-1.2544,-1.2547,-1.2548,-1.2699,-1.2701,0,0,0,0,0,0,-1.2347,-1.2357,-1.2445,-1.2449,-1.2387,-1.2427,-1.2434,-1.2456,-1.2488,-1.2491,-1.2463,-1.2461,-1.2516,-1.2522,-1.2528,-1.2594,-1.2545,-1.2549,-1.2551,-1.2697,-1.2699,-1.2701,0,0,0,0,0,0,-1.2345,-1.2355,-1.2443,-1.2403,-1.2414,-1.2431,-1.2456,-1.2458,-1.2473,-1.2493,-1.2496,-1.2475,-1.2515,-1.2523,-1.257,-1.2596,-1.255,-1.2554,-1.2695,-1.2698,-1.27,-1.2727,0,0,0,0,0,0,-1.2341,-1.2354,-1.2376,-1.2403,-1.2416,-1.2485,-1.2457,-1.246,-1.248,-1.2477,-1.2506,-1.2509,-1.2514,-1.2565,-1.2574,-1.2601,-1.2557,-1.2693,-1.2696,-1.2699,-1.2724,-1.273,-1.2736,0,0,0,0,0,-1.2337,-1.2381,-1.2377,-1.2388,-1.2443,-1.2486,-1.2493,-1.2499,-1.2482,-1.2503,-1.2516,-1.2508,-1.2592,-1.257,-1.258,-1.2608,-1.2691,-1.2695,-1.2699,-1.2722,-1.2729,-1.2736,0,0,0,0,0,0,-1.2357,-1.2385,-1.2381,-1.2435,-1.2458,-1.2484,-1.2512,-1.2507,-1.2535,-1.2532,-1.2537,-1.2543,-1.2591,-1.2604,-1.2579,-1.2662,-1.2639,-1.2645,-1.2652,-1.266,-1.2666,-1.2662,-1.256,0,0,0,0,0,-1.2367,-1.24,-1.2423,-1.2469,-1.2481,-1.2494,-1.2513,-1.2515,-1.2539,-1.2549,-1.2565,-1.2588,-1.262,-1.264,-1.267,-1.2725,-1.2731,-1.275,-1.2755,-1.276,-1.2766,-1.2795,-1.2803,-1.2714,-1.2714,-1.2714,0,0,-1.239,-1.241,-1.243,-1.2474,-1.2492,-1.2525,-1.2503,-1.2539,-1.2564,-1.2554,-1.26,-1.2612,-1.2639,-1.269,-1.2713,-1.2702,-1.2791,-1.2765,-1.2769,-1.2772,-1.28,-1.2808,-1.2816,-1.2717,-1.2716,-1.2716,0,0,-1.2448,-1.2467,-1.2507,-1.2525,-1.2552,-1.2561,-1.257,-1.2596,-1.2604,-1.265,-1.2643,-1.2672,-1.2726,-1.2745,-1.2762,-1.2825,-1.2819,-1.2835,-1.2866,-1.2894,-1.2901,-1.2907,-1.2929,-1.2937,-1.284,-1.284,-1.284,0,-1.2473,-1.2524,-1.2528,-1.2565,-1.2584,-1.2576,-1.2616,-1.2634,-1.267,-1.2682,-1.2669,-1.2736,-1.2753,-1.2809,-1.2824,-1.2838,-1.2848,-1.2832,-1.29,-1.2906,-1.2912,-1.2933,-1.2941,-1.2842,-1.2841,-1.2841,-1.2841,0,-1.2552,-1.2587,-1.2616,-1.2651,-1.2673,-1.2711,-1.272,-1.2742,-1.2741,-1.2751,-1.2797,-1.2817,-1.285,-1.2863,-1.2863,-1.2918,-1.291,-1.2898,-1.2875,-1.2922,-1.2942,-1.295,-1.2844,-1.2844,-1.2843,-1.2843,0,0,-1.2626,-1.2662,-1.2672,-1.2687,-1.2716,-1.2743,-1.278,-1.2813,-1.2831,-1.2856,-1.2887,-1.2932,-1.2921,-1.294,-1.2941,-1.2966,-1.3014,-1.2951,-1.2952,-1.2962,-1.3075,-1.3084,-1.3094,-1.301,-1.3011,-1.3012,-1.3073,0,-1.2687,-1.2754,-1.2758,-1.2818,-1.2849,-1.2842,-1.2874,-1.2895,-1.2904,-1.2932,-1.2942,-1.2974,-1.2957,-1.2968,-1.2992,-1.3003,-1.3037,-1.2999,-1.3038,-1.304,-1.3032,-1.3104,-1.3114,-1.317,-1.3081,-1.3082,-1.3083,0,-1.2768,-1.2794,-1.2857,-1.2881,-1.2894,-1.2924,-1.2953,-1.298,-1.3003,-1.3008,-1.3028,-1.3026,-1.3063,-1.3037,-1.3088,-1.3062,-1.3078,-1.3086,-1.3088,-1.3093,-1.3065,-1.311,-1.3188,-1.3197,-1.3095,-1.3094,-1.3093,0,-1.2815,-1.2867,-1.2911,-1.2924,-1.2953,-1.2973,-1.2986,-1.3007,-1.3026,-1.3052,-1.3064,-1.3093,-1.3109,-1.3132,-1.3137,-1.3118,-1.3188,-1.3163,-1.3192,-1.3192,-1.3208,-1.3207,-1.329,-1.3218,-1.3218,-1.3218,-1.3217,0,-1.2883,-1.2922,-1.2933,-1.296,-1.3003,-1.3006,-1.3048,-1.306,-1.3078,-1.3107,-1.3102,-1.3128,-1.3134,-1.3161,-1.3165,-1.3207,-1.3214,-1.3218,-1.3219,-1.3219,-1.3219,-1.323,-1.3227,-1.322,-1.3219,-1.3219,-1.3219,0,-1.2944,-1.2953,-1.3,-1.3023,-1.3029,-1.306,-1.3079,-1.3105,-1.3112,-1.3149,-1.3157,-1.317,-1.3202,-1.3209,-1.3247,-1.325,-1.3299,-1.3295,-1.3291,-1.3291,-1.332,-1.3317,-1.3413,-1.3426,-1.3345,-1.3346,-1.3347,0,-1.2987,-1.3017,-1.3042,-1.3061,-1.3075,-1.3105,-1.3124,-1.3128,-1.3148,-1.3176,-1.3198,-1.3229,-1.3255,-1.3306,-1.3318,-1.3347,-1.3344,-1.3376,-1.3349,-1.3347,-1.3345,-1.3343,-1.3346,-1.3381,-1.3382,-1.3383,-1.3384,0,-1.3063,-1.3065,-1.3093,-1.3123,-1.3145,-1.3169,-1.3191,-1.3206,-1.3213,-1.3235,-1.3268,-1.3288,-1.3326,-1.3357,-1.3386,-1.3398,-1.3392,-1.3392,-1.34,-1.3401,-1.3397,-1.3399,-1.3305,-1.339,-1.3389,-1.3389,-1.3388,-1.3388,-1.3116,-1.3142,-1.3163,-1.3194,-1.3211,-1.3232,-1.3257,-1.3267,-1.3295,-1.3327,-1.3327,-1.3362,-1.3383,-1.342,-1.3434,-1.3461,-1.3451,-1.3464,-1.3467,-1.347,-1.3472,-1.3392,-1.3466,-1.3466,-1.3466,-1.3466,-1.3466,0,-1.3191,-1.3205,-1.3233,-1.3264,-1.3288,-1.328,-1.3303,-1.3324,-1.3355,-1.3375,-1.34,-1.3437,-1.3466,-1.348,-1.3509,-1.3528,-1.3526,-1.3535,-1.3534,-1.3537,-1.348,-1.3469,-1.3536,-1.3536,-1.3536,-1.3536,-1.3536,-1.3536,-1.3233,-1.3276,-1.3281,-1.3331,-1.3344,-1.3379,-1.3393,-1.3411,-1.3427,-1.3469,-1.3493,-1.3502,-1.3519,-1.3548,-1.3575,-1.3578,-1.3589,-1.36,-1.3602,-1.3548,-1.3541,-1.3534,-1.3525,-1.3602,-1.3602,-1.3657,-1.3657,-1.3657]},{"header":{"parameterUnit":"m.s-1","parameterCategory":1,"la1":30.2991,"la2":30.254,"lo1":-89.0895,"lo2":-89.0444,"dy":0.0017,"dx":0.0017,"nx":28,"ny":28,"refTime":"2025-12-14T03:00:00:Z","depth":0,"parameterNumber":3,"parameterNumberName":"V-component_of_WINDS"},"data":[0,0,0,0,0,0,0,0,0,0,0,0,0,0,0,0,0,0,0,0,0,0,0,0,0,0,0,0,0,0,0,0,0,0,0,0,0,0,0,0,0,0,0,0,0,0,0,0,0,0,0,0,0,0,0,0,0,0,-10.2606,-10.2607,0,-10.2738,-10.2739,-10.2741,-10.2643,-10.2639,-10.2635,-10.2631,-10.2758,-10.2765,-10.2772,0,0,0,0,0,0,0,0,0,0,0,0,0,-10.2261,-10.2268,-10.2605,-10.2607,-10.2609,-10.2738,-10.2739,-10.2741,-10.2644,-10.2639,-10.2634,-10.2629,-10.2755,-10.2764,-10.2773,0,0,0,0,0,0,0,0,0,0,0,0,0,-10.2404,-10.227,-10.2605,-10.2576,-10.2575,-10.2737,-10.2739,-10.2742,-10.2645,-10.2639,-10.2632,-10.2626,-10.2753,-10.2763,-10.2774,-10.297,0,0,-10.2808,-10.2813,0,0,0,0,0,0,0,0,-10.2396,-10.2416,-10.2579,-10.2578,-10.2577,-10.2668,-10.2664,-10.2818,-10.2647,-10.2618,-10.2631,-10.2623,-10.2732,-10.2745,-10.2783,-10.2976,-10.2981,-10.2809,-10.2815,-10.282,-10.2823,0,0,0,0,0,0,0,-10.2386,-10.241,-10.2657,-10.2581,-10.258,-10.2554,-10.2567,-10.2693,-10.2709,-10.262,-10.2613,-10.2631,-10.2731,-10.2773,-10.2785,-10.2983,-10.2808,-10.2818,-10.2825,-10.2829,-10.3343,-10.3349,0,0,0,0,0,0,-10.238,-10.2403,-10.2653,-10.2661,-10.2469,-10.2565,-10.258,-10.2645,-10.2708,-10.2711,-10.2636,-10.2626,-10.2757,-10.2773,-10.279,-10.3023,-10.282,-10.283,-10.2837,-10.3336,-10.3344,-10.3352,0,0,0,0,0,0,-10.2373,-10.2403,-10.2648,-10.253,-10.256,-10.2578,-10.2652,-10.2651,-10.2693,-10.272,-10.2721,-10.2677,-10.2753,-10.2774,-10.2926,-10.3026,-10.2835,-10.2845,-10.3327,-10.3338,-10.3348,-10.3491,0,0,0,0,0,0,-10.2364,-10.2401,-10.2478,-10.2533,-10.2566,-10.2785,-10.2658,-10.2658,-10.2713,-10.2701,-10.2758,-10.2762,-10.2749,-10.291,-10.2937,-10.3038,-10.2854,-10.3318,-10.3332,-10.3345,-10.3478,-10.3506,-10.3529,0,0,0,0,0,-10.2352,-10.2511,-10.2482,-10.2513,-10.2662,-10.2791,-10.281,-10.2795,-10.2722,-10.2797,-10.2815,-10.276,-10.3011,-10.2927,-10.2956,-10.3062,-10.3312,-10.3328,-10.3344,-10.3466,-10.35,-10.3529,0,0,0,0,0,0,-10.2463,-10.2517,-10.2486,-10.2669,-10.2727,-10.2775,-10.2869,-10.2831,-10.2909,-10.2894,-10.2869,-10.2883,-10.3043,-10.3067,-10.2973,-10.3254,-10.3149,-10.3172,-10.3233,-10.3265,-10.329,-10.3281,-10.2863,0,0,0,0,0,-10.251,-10.2613,-10.2653,-10.281,-10.2841,-10.2851,-10.2906,-10.289,-10.2948,-10.2971,-10.2999,-10.3055,-10.3146,-10.3207,-10.3292,-10.3481,-10.3491,-10.3568,-10.3594,-10.3615,-10.3634,-10.3735,-10.3769,-10.3404,-10.3403,-10.3403,0,0,-10.2605,-10.2648,-10.2714,-10.2834,-10.2876,-10.2981,-10.2872,-10.2987,-10.3064,-10.2987,-10.3134,-10.3157,-10.3217,-10.3389,-10.3466,-10.3414,-10.3738,-10.3635,-10.3651,-10.3659,-10.3755,-10.379,-10.382,-10.3414,-10.3412,-10.3411,0,0,-10.2834,-10.2877,-10.3013,-10.3059,-10.3127,-10.3132,-10.3165,-10.322,-10.3233,-10.3381,-10.3326,-10.3415,-10.3573,-10.3619,-10.3663,-10.3911,-10.3863,-10.3939,-10.4073,-10.4172,-10.4201,-10.4226,-10.4314,-10.4346,-10.3958,-10.3959,-10.3959,0,-10.2943,-10.3102,-10.3086,-10.3207,-10.3261,-10.32,-10.3336,-10.3381,-10.3472,-10.3509,-10.3451,-10.3649,-10.3685,-10.3867,-10.3928,-10.3965,-10.4,-10.3932,-10.4198,-10.4224,-10.4247,-10.4331,-10.4364,-10.3967,-10.3966,-10.3965,-10.3965,0,-10.3233,-10.3344,-10.3445,-10.3539,-10.3604,-10.3731,-10.3733,-10.38,-10.3779,-10.379,-10.3941,-10.3983,-10.4076,-10.4118,-10.4097,-10.4297,-10.4263,-10.4202,-10.4096,-10.4291,-10.4369,-10.4401,-10.398,-10.3977,-10.3974,-10.3972,0,0,-10.3534,-10.3619,-10.3657,-10.3699,-10.377,-10.3854,-10.3978,-10.4072,-10.413,-10.4195,-10.4298,-10.4434,-10.4379,-10.4429,-10.4412,-10.45,-10.4693,-10.4428,-10.4429,-10.4475,-10.4915,-10.496,-10.4998,-10.4662,-10.4668,-10.4673,-10.491,0,-10.3766,-10.3986,-10.3976,-10.4181,-10.4283,-10.4227,-10.4335,-10.4389,-10.4403,-10.4489,-10.4503,-10.4601,-10.4521,-10.4551,-10.4634,-10.4652,-10.4781,-10.4634,-10.4755,-10.4759,-10.4741,-10.5038,-10.5086,-10.5308,-10.494,-10.4945,-10.4949,0,-10.4065,-10.4145,-10.4361,-10.4418,-10.446,-10.4558,-10.4644,-10.4728,-10.4787,-10.4791,-10.4849,-10.4818,-10.4942,-10.4834,-10.5003,-10.4904,-10.4952,-10.4968,-10.4976,-10.4986,-10.4866,-10.5056,-10.5378,-10.5412,-10.4997,-10.4993,-10.499,0,-10.4263,-10.4423,-10.4574,-10.4611,-10.4682,-10.4752,-10.4784,-10.4837,-10.4895,-10.4969,-10.5006,-10.5093,-10.514,-10.5207,-10.52,-10.5122,-10.5371,-10.5263,-10.5376,-10.5377,-10.5431,-10.5427,-10.5765,-10.5463,-10.5463,-10.5462,-10.5462,0,-10.4523,-10.4657,-10.4664,-10.4756,-10.4904,-10.4891,-10.5037,-10.5061,-10.511,-10.5204,-10.516,-10.5249,-10.5235,-10.5323,-10.5318,-10.5458,-10.548,-10.5485,-10.5482,-10.5489,-10.5488,-10.552,-10.5504,-10.5471,-10.5469,-10.5467,-10.5466,0,-10.4768,-10.4778,-10.4938,-10.4993,-10.501,-10.5117,-10.5162,-10.5249,-10.526,-10.538,-10.5407,-10.5424,-10.5525,-10.5526,-10.564,-10.5637,-10.5809,-10.5788,-10.579,-10.5786,-10.5899,-10.5889,-10.6269,-10.6317,-10.5985,-10.5988,-10.5991,0,-10.4933,-10.5036,-10.5103,-10.5165,-10.5202,-10.5301,-10.5361,-10.5352,-10.5415,-10.5492,-10.5569,-10.5667,-10.5745,-10.591,-10.593,-10.6018,-10.5999,-10.6126,-10.6012,-10.6016,-10.6,-10.5994,-10.6004,-10.6148,-10.6152,-10.6155,-10.6157,0,-10.5224,-10.5225,-10.5314,-10.5407,-10.548,-10.5551,-10.5617,-10.5669,-10.5667,-10.574,-10.5845,-10.5906,-10.6026,-10.6123,-10.6209,-10.6238,-10.6198,-10.6194,-10.6225,-10.6232,-10.6229,-10.6232,-10.5851,-10.6185,-10.6182,-10.618,-10.6179,-10.6177,-10.5434,-10.5523,-10.5585,-10.5686,-10.5736,-10.5798,-10.5883,-10.5906,-10.5995,-10.6094,-10.6082,-10.6199,-10.6255,-10.6366,-10.6404,-10.6493,-10.6448,-10.6493,-10.6504,-10.6515,-10.6528,-10.6216,-10.6509,-10.6508,-10.6507,-10.6506,-10.6506,0,-10.5723,-10.5761,-10.5854,-10.595,-10.6029,-10.5988,-10.6058,-10.6126,-10.6232,-10.6289,-10.6368,-10.6489,-10.6584,-10.6613,-10.6704,-10.677,-10.6754,-10.6795,-10.6789,-10.6796,-10.6563,-10.6527,-10.6806,-10.6806,-10.6806,-10.6806,-10.6806,-10.6806,-10.5883,-10.6031,-10.604,-10.6212,-10.6247,-10.6365,-10.6409,-10.6466,-10.6512,-10.665,-10.673,-10.675,-10.6796,-10.689,-10.6975,-10.698,-10.7015,-10.7064,-10.7062,-10.6843,-10.6813,-10.6784,-10.675,-10.7072,-10.7072,-10.7288,-10.729,-10.7291]}]]